Total_Precipitation_Accumulation
0.17 0.42 0.87 1.36 2.33 2.54 1.96 1.14 0.83 0.63 0.63 0.68 0.68 0.68 0.82 1.12 1.57 2.45 2.61 1.92 1.22 1.17 1.39 1.80 2.28 2.21 2.26 2.18 1.97 1.94 1.92 1.91 1.92 1.96 2.04 2.09 2.18 2.24 2.36 2.47 2.67 3.16 3.40 3.26 3.19 3.13 3.06 2.94 3.06
0.35 0.71 1.20 1.88 2.60 2.26 1.67 0.95 0.69 0.52 0.51 0.52 0.48 0.55 0.74 0.95 0.92 1.41 2.05 1.75 1.10 1.01 1.10 1.27 1.91 2.25 2.41 2.21 2.02 1.95 1.89 1.89 1.81 1.97 1.97 1.99 2.19 2.36 2.55 2.61 2.69 2.90 3.06 3.03 3.06 2.98 3.06 2.96 2.88
0.67 1.01 1.36 1.99 1.65 1.40 1.19 0.78 0.60 0.43 0.51 0.67 0.60 0.54 0.79 1.16 1.09 1.40 1.61 1.18 1.01 0.99 1.06 1.34 1.99 2.22 2.20 2.14 1.99 1.83 1.86 1.95 1.98 1.94 1.85 1.92 2.10 2.36 2.50 2.72 2.88 2.80 2.95 3.01 3.01 2.86 3.00 2.87 2.78
0.78 1.05 1.30 1.28 0.76 0.58 0.62 0.63 0.57 0.56 0.74 0.86 0.74 0.74 0.97 1.10 1.13 1.23 1.08 0.93 0.87 1.05 1.15 1.52 2.02 2.09 2.14 2.09 2.00 1.87 1.93 2.04 2.02 1.96 1.94 2.07 2.12 2.19 2.21 2.37 2.63 2.73 2.83 2.97 3.08 2.99 2.97 2.84 2.86
0.81 1.09 1.40 0.86 0.43 0.39 0.39 0.43 0.56 0.63 0.86 0.93 0.71 0.96 1.42 1.44 1.10 1.00 0.83 0.85 0.89 1.08 1.30 1.65 2.04 2.12 2.21 1.97 1.90 1.91 1.91 1.94 1.96 1.96 1.87 1.98 2.06 2.14 2.17 2.24 2.47 2.74 2.97 3.01 3.02 3.07 2.99 3.02 3.26
0.91 1.04 0.97 0.59 0.33 0.28 0.30 0.36 0.52 0.64 0.82 0.88 0.77 1.18 1.85 1.91 1.49 1.24 1.09 1.25 1.26 1.40 1.57 1.96 2.30 2.39 2.40 2.12 2.01 2.00 1.94 1.88 1.90 1.91 1.90 1.82 1.92 2.04 2.09 2.20 2.40 2.74 3.15 3.07 2.94 2.98 2.88 2.95 3.09
0.88 0.79 0.56 0.31 0.23 0.24 0.28 0.33 0.52 0.67 0.83 1.03 1.00 1.34 1.93 2.33 1.91 1.55 1.47 1.59 1.68 1.71 1.82 2.06 2.37 2.44 2.46 2.31 2.24 2.07 1.97 1.96 2.03 2.03 1.90 1.83 1.88 1.88 1.84 1.99 2.31 2.56 3.01 2.91 2.93 2.95 2.88 2.80 2.86
0.50 0.48 0.36 0.21 0.15 0.20 0.23 0.30 0.44 0.63 0.88 1.00 1.02 1.25 1.65 1.87 1.77 1.79 1.89 1.98 2.12 2.08 2.03 1.95 2.02 2.19 2.08 1.92 2.07 2.01 1.98 2.10 2.19 2.20 2.07 2.12 2.12 1.90 1.93 2.04 2.29 2.50 2.71 2.64 2.64 2.70 2.72 2.70 2.83
0.32 0.38 0.26 0.18 0.11 0.15 0.22 0.36 0.49 0.53 0.71 1.04 1.25 1.12 1.07 1.31 1.73 2.05 2.50 2.58 2.66 2.46 2.09 1.86 1.84 1.98 1.95 1.74 1.77 2.19 2.31 2.34 2.45 2.61 2.60 2.77 2.80 2.34 2.40 2.18 2.41 2.67 2.63 2.57 2.72 2.78 2.88 3.06 3.02
0.24 0.25 0.16 0.10 0.06 0.09 0.20 0.43 0.58 0.72 1.06 1.42 1.58 1.38 1.18 1.29 1.87 2.27 2.60 2.86 2.53 2.51 2.44 2.19 1.98 1.88 1.93 1.75 1.96 2.68 2.63 2.66 2.92 3.20 3.07 3.19 2.99 2.73 2.15 2.32 2.90 3.04 3.03 3.13 3.45 3.64 3.37 3.23 3.16
0.17 0.13 0.08 0.07 0.07 0.10 0.23 0.27 0.37 0.64 1.27 1.68 1.88 1.53 1.32 1.48 1.97 2.53 2.78 2.76 2.52 2.48 2.35 2.44 2.31 2.12 2.11 2.31 2.23 2.53 2.86 3.03 3.13 3.09 3.05 3.16 2.67 2.34 2.26 2.84 3.39 3.28 3.21 3.36 3.67 3.95 3.22 3.30 3.92
0.10 0.07 0.05 0.06 0.06 0.08 0.15 0.24 0.41 0.71 1.20 1.47 1.38 1.23 1.28 1.55 1.88 2.55 2.98 2.91 2.78 2.74 2.61 2.89 2.82 2.74 2.76 2.61 2.58 2.45 2.49 2.55 2.60 2.72 2.61 2.71 2.82 2.77 2.92 3.29 3.38 3.38 3.50 3.85 3.65 3.86 3.75 3.91 3.94
0.07 0.07 0.07 0.06 0.07 0.10 0.14 0.25 0.38 0.64 0.91 0.99 0.90 1.06 1.52 1.67 2.02 2.69 3.28 3.25 3.20 3.11 3.19 3.32 3.35 3.49 3.34 3.15 2.99 2.49 2.51 2.38 2.29 2.36 2.35 2.52 2.87 3.06 3.39 3.29 3.35 3.05 3.20 3.52 3.82 3.84 4.07 4.39 4.27
0.06 0.08 0.08 0.10 0.13 0.14 0.17 0.28 0.45 0.85 0.86 0.78 0.92 1.24 1.63 2.07 2.28 2.75 3.47 3.70 3.61 3.63 3.86 3.84 3.86 3.92 3.76 3.40 3.17 2.88 2.53 2.54 2.29 2.31 2.38 2.84 3.14 3.30 3.60 3.49 3.37 3.02 3.03 3.38 3.72 3.75 4.09 4.25 4.31
0.08 0.13 0.20 0.21 0.21 0.22 0.27 0.67 0.81 0.91 0.86 0.85 1.08 1.35 1.85 2.48 2.75 3.02 3.52 3.89 4.01 4.26 4.47 4.68 4.57 4.27 4.35 4.01 3.27 2.77 2.49 2.32 2.45 2.63 2.69 2.99 3.16 3.53 3.85 3.77 3.33 3.06 3.16 3.39 3.37 3.50 4.00 3.95 3.88
0.15 0.21 0.40 0.34 0.23 0.26 0.39 0.99 1.00 0.94 0.97 1.05 1.27 1.62 1.98 2.48 2.62 2.88 3.33 3.88 4.39 4.78 5.21 5.44 5.03 4.92 4.96 4.67 4.09 3.50 3.15 2.99 3.05 3.08 2.92 2.72 2.92 3.13 3.55 3.34 2.90 2.94 3.12 3.36 3.41 3.37 3.75 3.92 3.94
0.22 0.27 0.40 0.37 0.25 0.24 0.37 0.84 0.83 0.69 1.02 1.42 1.66 1.81 1.98 2.15 2.32 2.54 2.94 3.63 4.45 5.04 5.78 6.20 6.44 5.94 5.57 5.02 4.61 4.06 3.76 3.58 3.34 3.10 2.82 2.53 2.30 2.24 2.68 2.66 2.58 2.60 2.89 2.99 2.66 2.92 3.24 3.48 3.66
0.19 0.26 0.35 0.43 0.30 0.29 0.45 0.75 0.84 0.72 1.02 1.38 1.42 1.67 1.76 1.79 2.03 2.43 2.96 3.50 4.38 5.15 5.88 6.31 6.59 6.09 5.39 5.08 5.07 4.74 4.15 3.68 3.31 3.00 2.80 2.41 2.31 2.07 2.35 2.40 2.25 2.21 2.47 2.63 2.78 3.09 3.14 3.00 3.08
0.12 0.21 0.32 0.33 0.28 0.38 0.58 0.83 0.96 0.94 0.99 1.13 1.27 1.42 1.42 1.48 1.78 2.27 2.90 3.57 4.40 5.52 6.19 6.34 6.13 5.47 4.99 4.58 4.35 4.09 3.84 3.56 3.06 2.66 2.43 2.33 2.26 2.24 2.54 2.35 2.40 2.24 2.31 2.42 2.49 2.72 2.83 2.60 2.77
0.09 0.16 0.26 0.25 0.21 0.25 0.54 0.94 1.05 1.06 1.12 1.10 1.18 1.23 1.14 1.31 1.69 2.32 3.03 3.82 4.52 5.07 5.43 5.52 5.16 4.44 3.97 3.77 3.76 3.50 3.30 2.98 2.77 2.52 2.54 2.19 2.09 2.18 2.13 2.36 2.20 2.16 2.42 2.40 2.49 2.70 2.67 2.38 2.56
0.11 0.14 0.21 0.24 0.22 0.27 0.54 1.15 1.34 1.23 1.16 1.12 1.02 0.99 1.08 1.32 1.88 2.66 3.42 4.18 4.51 4.55 4.33 4.01 3.85 3.49 3.42 3.43 3.28 3.08 3.03 2.77 2.60 2.40 2.36 2.06 1.83 1.84 1.96 2.03 2.00 2.17 2.11 2.32 2.47 2.57 2.77 2.72 2.47
0.12 0.11 0.12 0.14 0.22 0.48 0.64 1.26 1.40 1.36 1.27 1.11 1.10 1.10 1.22 1.51 2.02 2.70 3.23 3.47 3.61 3.54 3.26 3.08 3.03 2.98 2.95 2.88 2.80 2.53 2.40 2.40 2.27 2.20 2.25 2.15 1.87 1.83 1.88 1.91 2.08 2.15 2.03 2.37 2.11 2.26 2.64 2.80 2.51
0.09 0.08 0.12 0.17 0.29 0.53 0.68 1.03 1.39 1.36 1.42 1.01 0.88 0.99 1.11 1.35 1.67 1.85 2.03 2.15 2.26 2.30 2.46 2.54 2.70 2.84 2.75 2.70 2.72 2.67 2.38 2.34 2.32 2.35 2.48 2.36 2.12 1.92 1.73 1.92 2.20 2.30 2.15 2.20 2.30 2.60 2.54 2.52 2.46
0.08 0.09 0.17 0.31 0.52 0.93 0.92 1.07 1.42 1.39 1.28 0.90 0.71 0.77 0.99 1.09 1.13 1.22 1.27 1.37 1.58 1.64 1.88 2.10 2.20 2.34 2.51 2.55 2.42 2.35 2.33 2.43 2.48 2.47 2.33 2.15 2.04 1.93 1.85 2.01 2.28 2.31 2.35 2.32 2.28 2.38 2.42 2.51 2.57
0.09 0.16 0.45 0.87 1.25 1.27 0.79 0.89 1.33 1.23 0.92 0.65 0.56 0.57 0.62 0.76 0.95 1.20 1.23 1.32 1.49 1.41 1.55 1.79 1.80 1.79 1.93 1.97 1.95 2.02 2.20 2.29 2.17 2.10 2.04 1.94 1.72 1.76 1.90 2.01 2.26 2.26 2.27 2.21 2.41 2.44 2.42 2.51 2.48
0.11 0.17 0.38 0.63 0.73 0.86 0.89 1.36 1.55 0.98 0.67 0.52 0.50 0.51 0.52 0.68 0.84 1.03 0.93 1.01 1.17 1.17 1.27 1.39 1.47 1.52 1.58 1.68 1.81 1.78 1.92 1.94 1.86 1.99 1.87 1.78 1.55 1.47 1.61 1.78 1.83 1.92 1.98 1.95 2.44 2.34 2.41 2.53 2.36
0.10 0.12 0.19 0.25 0.35 0.71 1.14 1.46 1.39 0.90 0.75 0.60 0.52 0.55 0.56 0.53 0.67 0.77 0.73 0.67 0.82 0.97 1.09 1.17 1.24 1.36 1.39 1.54 1.65 1.61 1.70 1.80 1.87 1.89 1.80 1.63 1.66 1.52 1.58 1.65 1.88 2.02 2.09 2.16 2.46 2.39 2.39 2.59 2.38
0.11 0.15 0.18 0.24 0.37 0.66 1.06 1.56 1.79 1.30 0.79 0.68 0.61 0.62 0.67 0.59 0.65 0.68 0.68 0.59 0.66 0.83 1.10 1.17 1.17 1.32 1.35 1.45 1.48 1.35 1.53 1.67 1.84 1.81 1.72 1.66 1.68 1.65 1.77 1.86 2.02 2.14 2.12 2.17 2.40 2.35 2.47 2.59 2.46
0.16 0.14 0.17 0.22 0.26 0.48 0.96 1.27 1.05 1.01 0.80 0.86 0.80 0.70 0.71 0.69 0.73 0.66 0.65 0.62 0.59 0.70 0.93 1.00 1.15 1.26 1.33 1.41 1.52 1.59 1.60 1.54 1.69 1.73 1.71 1.73 1.76 1.75 1.83 1.94 2.10 2.14 2.22 2.36 2.49 2.31 2.43 2.55 2.69
0.17 0.17 0.18 0.22 0.27 0.32 0.50 0.74 0.69 0.86 0.81 0.82 0.90 0.87 0.81 0.61 0.56 0.65 0.74 0.76 0.65 0.65 0.77 0.93 1.11 1.26 1.31 1.39 1.56 1.66 1.83 1.79 1.75 1.73 1.79 1.86 1.98 2.06 2.01 2.09 2.17 2.06 2.12 2.36 2.44 2.41 2.47 2.51 2.53